User: anonymous   Login
Location: Unspecified
(0.0000°N, 0.0000°E)
Time: 07:12:23
(UTC+01:00)
Language:

Cosmos 1782 Rocket - Orbit

View from above orbital plane
View from above orbital plane
View from above satellite
View from above satellite

Ground track
Ground track

The orbit data is extracted from the following two-line orbital elements,

1 16987U 86074B   17081.96936804 +.00000091 +00000-0 +82934-5 0  9999
2 16987 082.5182 031.1562 0018152 179.8434 247.8086 14.82951173624581
Epoch (UTC): 22 March 2017 23:15:53
Eccentricity: 0.0018152
inclination: 82.5182°
perigee height: 607 km
apogee height: 633 km
right ascension of ascending node: 31.1562°
argument of perigee: 179.8434°
revolutions per day: 14.82951173
mean anomaly at epoch: 247.8086°
orbit number at epoch: 62458

The dashed part of the orbit path shows where the satellite is in the earth's shadow,  

DLR